QPF
0.00 0.00 0.00 0.00 0.00 0.00 0.00 0.00 0.00 0.00 0.00 0.00 0.00 0.01 0.01 0.01 0.01 0.01 0.01 0.02 0.03 0.04 0.05 0.05 0.05 0.05 0.03 0.02 0.01 0.01 0.01 0.02 0.03 0.03 0.03 0.03 0.04 0.06 0.06 0.06 0.04 0.05 0.07 0.08
0.00 0.00 0.00 0.00 0.00 0.00 0.00 0.00 0.00 0.00 0.00 0.00 0.01 0.01 0.01 0.02 0.01 0.02 0.01 0.02 0.02 0.04 0.04 0.04 0.04 0.03 0.03 0.02 0.01 0.02 0.02 0.02 0.02 0.02 0.02 0.02 0.02 0.03 0.06 0.12 0.12 0.10 0.11 0.10
0.00 0.00 0.00 0.00 0.00 0.00 0.00 0.00 0.00 0.00 0.00 0.00 0.00 0.00 0.01 0.01 0.01 0.01 0.01 0.01 0.02 0.03 0.02 0.03 0.02 0.02 0.02 0.01 0.01 0.02 0.02 0.02 0.02 0.01 0.01 0.01 0.01 0.01 0.03 0.07 0.13 0.12 0.14 0.15
0.00 0.00 0.00 0.00 0.00 0.00 0.00 0.00 0.00 0.00 0.00 0.00 0.00 0.00 0.00 0.01 0.01 0.01 0.01 0.01 0.02 0.03 0.02 0.03 0.02 0.01 0.01 0.02 0.01 0.01 0.00 0.01 0.02 0.01 0.01 0.01 0.01 0.01 0.03 0.06 0.09 0.12 0.11 0.11
0.00 0.00 0.00 0.00 0.00 0.00 0.00 0.00 0.00 0.00 0.00 0.00 0.00 0.00 0.00 0.00 0.00 0.00 0.00 0.01 0.02 0.02 0.03 0.04 0.03 0.01 0.01 0.03 0.02 0.01 0.00 0.01 0.01 0.02 0.01 0.01 0.01 0.01 0.03 0.05 0.08 0.12 0.13 0.09
0.00 0.00 0.00 0.00 0.00 0.00 0.00 0.00 0.01 0.01 0.00 0.00 0.00 0.00 0.00 0.00 0.00 0.00 0.01 0.01 0.02 0.02 0.04 0.04 0.03 0.02 0.02 0.05 0.04 0.02 0.02 0.02 0.02 0.02 0.01 0.01 0.01 0.01 0.03 0.05 0.06 0.09 0.10 0.07
0.00 0.00 0.00 0.00 0.00 0.00 0.00 0.00 0.00 0.01 0.00 0.00 0.00 0.00 0.00 0.00 0.00 0.00 0.01 0.01 0.03 0.03 0.04 0.05 0.05 0.03 0.02 0.03 0.04 0.05 0.06 0.05 0.03 0.03 0.03 0.03 0.02 0.02 0.02 0.04 0.05 0.07 0.05 0.05
0.00 0.00 0.00 0.00 0.00 0.00 0.00 0.00 0.00 0.00 0.00 0.00 0.00 0.00 0.00 0.00 0.00 0.00 0.01 0.02 0.02 0.02 0.03 0.05 0.06 0.03 0.03 0.04 0.07 0.12 0.11 0.06 0.04 0.03 0.03 0.03 0.03 0.02 0.02 0.03 0.04 0.04 0.02 0.03
0.00 0.00 0.00 0.00 0.00 0.00 0.00 0.00 0.00 0.00 0.00 0.00 0.00 0.00 0.00 0.00 0.00 0.01 0.01 0.01 0.01 0.01 0.02 0.02 0.02 0.02 0.02 0.03 0.04 0.06 0.06 0.05 0.02 0.02 0.02 0.02 0.02 0.02 0.02 0.03 0.03 0.02 0.02 0.02
0.00 0.00 0.00 0.00 0.00 0.00 0.00 0.00 0.00 0.00 0.00 0.00 0.00 0.00 0.00 0.00 0.00 0.00 0.00 0.00 0.00 0.00 0.01 0.01 0.01 0.01 0.01 0.01 0.01 0.01 0.01 0.01 0.01 0.01 0.01 0.01 0.01 0.02 0.02 0.03 0.03 0.03 0.02 0.03
0.00 0.00 0.00 0.00 0.00 0.00 0.00 0.00 0.00 0.00 0.00 0.00 0.00 0.00 0.00 0.00 0.00 0.00 0.00 0.00 0.00 0.00 0.00 0.01 0.01 0.01 0.02 0.02 0.01 0.01 0.01 0.01 0.01 0.01 0.01 0.01 0.01 0.02 0.02 0.02 0.02 0.01 0.02 0.03
0.00 0.00 0.00 0.00 0.00 0.00 0.00 0.00 0.00 0.00 0.00 0.00 0.00 0.00 0.00 0.00 0.00 0.00 0.00 0.00 0.00 0.00 0.00 0.01 0.02 0.02 0.02 0.02 0.02 0.02 0.02 0.01 0.01 0.01 0.01 0.01 0.01 0.02 0.02 0.01 0.02 0.02 0.02 0.03
0.00 0.00 0.00 0.00 0.00 0.00 0.00 0.00 0.00 0.00 0.00 0.00 0.00 0.00 0.00 0.00 0.00 0.00 0.00 0.00 0.00 0.00 0.01 0.02 0.02 0.02 0.02 0.02 0.02 0.02 0.02 0.02 0.02 0.02 0.01 0.01 0.02 0.04 0.06 0.06 0.05 0.03 0.03 0.04
0.00 0.00 0.00 0.00 0.00 0.00 0.00 0.00 0.00 0.00 0.00 0.00 0.00 0.00 0.00 0.00 0.00 0.00 0.00 0.01 0.01 0.01 0.01 0.01 0.01 0.01 0.01 0.02 0.02 0.02 0.02 0.03 0.03 0.03 0.02 0.01 0.04 0.05 0.05 0.05 0.05 0.04 0.04 0.03
0.00 0.00 0.00 0.00 0.00 0.00 0.00 0.00 0.00 0.00 0.00 0.00 0.00 0.00 0.00 0.00 0.00 0.00 0.00 0.01 0.01 0.01 0.01 0.01 0.02 0.02 0.02 0.03 0.03 0.03 0.03 0.04 0.04 0.04 0.03 0.03 0.05 0.05 0.05 0.06 0.07 0.05 0.05 0.06
0.00 0.00 0.00 0.00 0.00 0.00 0.00 0.00 0.00 0.00 0.00 0.00 0.00 0.00 0.00 0.00 0.01 0.01 0.01 0.01 0.01 0.01 0.02 0.02 0.02 0.02 0.03 0.04 0.04 0.04 0.05 0.06 0.06 0.06 0.06 0.07 0.09 0.09 0.10 0.12 0.09 0.06 0.04 0.04
0.00 0.00 0.00 0.00 0.00 0.00 0.00 0.00 0.00 0.00 0.00 0.00 0.00 0.00 0.00 0.00 0.01 0.01 0.02 0.02 0.02 0.02 0.01 0.02 0.01 0.02 0.02 0.03 0.04 0.05 0.06 0.06 0.07 0.07 0.07 0.09 0.09 0.09 0.09 0.08 0.06 0.05 0.03 0.03
0.00 0.00 0.00 0.00 0.00 0.00 0.00 0.00 0.00 0.00 0.00 0.00 0.00 0.00 0.00 0.00 0.01 0.02 0.02 0.02 0.02 0.02 0.02 0.02 0.02 0.02 0.03 0.05 0.05 0.07 0.08 0.07 0.06 0.06 0.06 0.06 0.08 0.09 0.09 0.07 0.05 0.04 0.03 0.02
0.00 0.00 0.00 0.00 0.00 0.00 0.00 0.00 0.00 0.00 0.00 0.00 0.00 0.00 0.00 0.00 0.01 0.01 0.01 0.01 0.02 0.02 0.02 0.02 0.01 0.01 0.02 0.03 0.05 0.07 0.09 0.12 0.13 0.13 0.12 0.11 0.10 0.08 0.07 0.08 0.06 0.05 0.03 0.02
0.00 0.00 0.00 0.00 0.00 0.00 0.00 0.00 0.00 0.00 0.00 0.00 0.00 0.00 0.00 0.00 0.01 0.01 0.01 0.01 0.02 0.02 0.02 0.01 0.01 0.01 0.01 0.02 0.02 0.02 0.04 0.08 0.09 0.14 0.18 0.18 0.15 0.13 0.10 0.09 0.09 0.06 0.04 0.03
0.00 0.00 0.00 0.00 0.00 0.00 0.00 0.00 0.00 0.00 0.00 0.00 0.00 0.00 0.01 0.01 0.01 0.01 0.02 0.02 0.02 0.02 0.02 0.02 0.01 0.01 0.01 0.01 0.01 0.02 0.01 0.02 0.02 0.04 0.06 0.08 0.11 0.11 0.11 0.08 0.06 0.05 0.03 0.03
0.00 0.00 0.00 0.00 0.00 0.00 0.00 0.00 0.00 0.00 0.00 0.00 0.00 0.01 0.01 0.01 0.02 0.02 0.02 0.02 0.02 0.02 0.02 0.02 0.01 0.01 0.01 0.01 0.01 0.01 0.01 0.01 0.02 0.03 0.03 0.04 0.05 0.07 0.08 0.07 0.06 0.04 0.03 0.02
0.01 0.01 0.01 0.00 0.00 0.00 0.00 0.00 0.00 0.00 0.01 0.01 0.01 0.01 0.02 0.02 0.02 0.02 0.03 0.02 0.02 0.02 0.02 0.01 0.01 0.01 0.01 0.01 0.01 0.01 0.01 0.01 0.02 0.03 0.05 0.04 0.04 0.05 0.05 0.05 0.05 0.05 0.04 0.03
0.00 0.01 0.01 0.00 0.01 0.01 0.00 0.01 0.01 0.01 0.01 0.02 0.02 0.02 0.02 0.02 0.02 0.02 0.02 0.02 0.02 0.02 0.02 0.01 0.01 0.01 0.01 0.01 0.01 0.01 0.01 0.02 0.02 0.04 0.05 0.05 0.04 0.04 0.05 0.05 0.05 0.05 0.04 0.03
0.01 0.01 0.01 0.01 0.00 0.00 0.00 0.00 0.01 0.01 0.01 0.02 0.01 0.02 0.02 0.02 0.02 0.02 0.02 0.02 0.03 0.03 0.03 0.02 0.02 0.02 0.02 0.02 0.02 0.03 0.03 0.03 0.03 0.04 0.05 0.06 0.06 0.07 0.07 0.07 0.07 0.07 0.07 0.06
0.01 0.02 0.02 0.01 0.01 0.01 0.01 0.00 0.01 0.01 0.01 0.02 0.02 0.02 0.02 0.02 0.02 0.02 0.02 0.02 0.02 0.03 0.03 0.02 0.03 0.03 0.03 0.04 0.04 0.05 0.05 0.04 0.03 0.03 0.04 0.05 0.07 0.08 0.09 0.09 0.08 0.08 0.07 0.08
MSLP
1008.69 1009.54 1010.29 1010.89 1011.35 1011.69 1011.91 1012.07 1012.18 1012.26 1012.33 1012.39 1012.44 1012.49 1012.56 1012.67 1012.82 1013.02 1013.26 1013.53 1013.81 1014.06 1014.27 1014.41 1014.48 1014.50 1014.51 1014.52 1014.59 1014.74 1014.98 1015.31 1015.71 1016.13 1016.55 1016.93 1017.25 1017.49 1017.65 1017.75 1017.82 1017.87 1017.94 1018.03
1009.16 1009.84 1010.41 1010.87 1011.25 1011.56 1011.85 1012.11 1012.35 1012.56 1012.71 1012.79 1012.80 1012.76 1012.69 1012.65 1012.66 1012.77 1012.98 1013.28 1013.63 1013.99 1014.30 1014.54 1014.69 1014.74 1014.74 1014.74 1014.78 1014.90 1015.14 1015.49 1015.92 1016.39 1016.85 1017.24 1017.53 1017.71 1017.78 1017.77 1017.72 1017.68 1017.68 1017.74
1009.37 1009.85 1010.24 1010.57 1010.88 1011.23 1011.61 1012.04 1012.47 1012.84 1013.11 1013.25 1013.23 1013.08 1012.85 1012.62 1012.45 1012.42 1012.54 1012.82 1013.22 1013.67 1014.10 1014.46 1014.70 1014.83 1014.86 1014.86 1014.89 1015.01 1015.24 1015.60 1016.05 1016.55 1017.03 1017.43 1017.70 1017.83 1017.82 1017.73 1017.59 1017.47 1017.40 1017.41
1009.33 1009.61 1009.82 1010.05 1010.35 1010.77 1011.31 1011.94 1012.60 1013.17 1013.59 1013.78 1013.73 1013.46 1013.04 1012.58 1012.19 1011.96 1011.95 1012.17 1012.58 1013.10 1013.65 1014.13 1014.50 1014.72 1014.83 1014.87 1014.91 1015.02 1015.25 1015.60 1016.06 1016.56 1017.05 1017.45 1017.71 1017.82 1017.77 1017.62 1017.42 1017.23 1017.11 1017.08
1009.13 1009.22 1009.30 1009.46 1009.78 1010.31 1011.04 1011.91 1012.81 1013.60 1014.16 1014.41 1014.31 1013.89 1013.26 1012.54 1011.88 1011.42 1011.24 1011.35 1011.74 1012.31 1012.96 1013.58 1014.08 1014.43 1014.63 1014.73 1014.80 1014.91 1015.13 1015.46 1015.90 1016.40 1016.88 1017.28 1017.55 1017.65 1017.58 1017.41 1017.18 1016.96 1016.80 1016.74
1008.90 1008.83 1008.80 1008.93 1009.30 1009.97 1010.90 1012.00 1013.12 1014.11 1014.80 1015.08 1014.92 1014.35 1013.48 1012.49 1011.56 1010.84 1010.45 1010.44 1010.77 1011.37 1012.10 1012.84 1013.48 1013.96 1014.27 1014.44 1014.55 1014.66 1014.85 1015.15 1015.56 1016.03 1016.50 1016.90 1017.18 1017.29 1017.24 1017.08 1016.85 1016.62 1016.45 1016.37
1008.70 1008.51 1008.42 1008.55 1009.00 1009.80 1010.91 1012.21 1013.53 1014.67 1015.44 1015.73 1015.49 1014.76 1013.68 1012.43 1011.22 1010.26 1009.67 1009.52 1009.78 1010.38 1011.17 1012.01 1012.77 1013.37 1013.78 1014.02 1014.15 1014.26 1014.42 1014.67 1015.03 1015.46 1015.91 1016.31 1016.60 1016.75 1016.74 1016.61 1016.42 1016.21 1016.04 1015.96
1008.59 1008.33 1008.21 1008.37 1008.90 1009.82 1011.07 1012.52 1013.96 1015.19 1016.00 1016.27 1015.94 1015.07 1013.80 1012.33 1010.90 1009.73 1008.96 1008.68 1008.87 1009.45 1010.27 1011.18 1012.03 1012.72 1013.20 1013.49 1013.64 1013.74 1013.85 1014.06 1014.35 1014.74 1015.16 1015.55 1015.86 1016.05 1016.10 1016.02 1015.88 1015.71 1015.56 1015.48
1008.52 1008.25 1008.16 1008.37 1008.97 1009.97 1011.30 1012.81 1014.31 1015.55 1016.35 1016.57 1016.16 1015.18 1013.78 1012.16 1010.58 1009.26 1008.37 1007.99 1008.11 1008.66 1009.49 1010.42 1011.32 1012.06 1012.58 1012.90 1013.05 1013.12 1013.20 1013.34 1013.58 1013.91 1014.29 1014.68 1015.01 1015.24 1015.34 1015.33 1015.25 1015.12 1015.01 1014.95
1008.44 1008.22 1008.20 1008.47 1009.13 1010.16 1011.51 1013.01 1014.47 1015.66 1016.40 1016.55 1016.07 1015.03 1013.56 1011.89 1010.25 1008.87 1007.92 1007.48 1007.56 1008.06 1008.86 1009.79 1010.68 1011.43 1011.96 1012.27 1012.41 1012.46 1012.49 1012.57 1012.75 1013.04 1013.39 1013.77 1014.11 1014.38 1014.53 1014.59 1014.56 1014.49 1014.41 1014.37
1008.28 1008.17 1008.24 1008.60 1009.29 1010.32 1011.61 1013.02 1014.36 1015.43 1016.05 1016.12 1015.60 1014.54 1013.10 1011.46 1009.87 1008.53 1007.59 1007.15 1007.19 1007.65 1008.40 1009.27 1010.12 1010.82 1011.32 1011.62 1011.73 1011.75 1011.74 1011.79 1011.93 1012.17 1012.50 1012.87 1013.22 1013.52 1013.72 1013.83 1013.85 1013.83 1013.79 1013.77
1007.99 1008.04 1008.24 1008.68 1009.40 1010.38 1011.56 1012.80 1013.96 1014.85 1015.32 1015.30 1014.75 1013.73 1012.37 1010.86 1009.40 1008.17 1007.32 1006.91 1006.95 1007.36 1008.03 1008.82 1009.58 1010.21 1010.66 1010.91 1011.00 1010.99 1010.97 1011.00 1011.12 1011.35 1011.66 1012.03 1012.39 1012.71 1012.95 1013.10 1013.17 1013.18 1013.17 1013.17
1007.60 1007.83 1008.18 1008.71 1009.42 1010.32 1011.34 1012.37 1013.28 1013.95 1014.25 1014.13 1013.57 1012.62 1011.41 1010.08 1008.81 1007.76 1007.03 1006.69 1006.74 1007.10 1007.69 1008.37 1009.02 1009.55 1009.93 1010.13 1010.20 1010.19 1010.18 1010.21 1010.34 1010.57 1010.89 1011.26 1011.64 1011.97 1012.24 1012.42 1012.52 1012.56 1012.58 1012.61
1007.17 1007.60 1008.10 1008.69 1009.39 1010.17 1010.99 1011.76 1012.41 1012.83 1012.94 1012.71 1012.15 1011.30 1010.25 1009.14 1008.10 1007.26 1006.69 1006.44 1006.50 1006.81 1007.30 1007.85 1008.38 1008.81 1009.11 1009.27 1009.33 1009.34 1009.35 1009.42 1009.58 1009.84 1010.17 1010.56 1010.94 1011.30 1011.58 1011.79 1011.92 1011.99 1012.04 1012.09
1006.81 1007.41 1008.03 1008.67 1009.32 1009.96 1010.56 1011.07 1011.43 1011.58 1011.51 1011.18 1010.61 1009.86 1008.99 1008.11 1007.31 1006.68 1006.27 1006.11 1006.19 1006.45 1006.84 1007.26 1007.66 1007.99 1008.21 1008.34 1008.40 1008.44 1008.51 1008.63 1008.84 1009.14 1009.51 1009.91 1010.31 1010.68 1010.98 1011.21 1011.36 1011.47 1011.54 1011.61
1006.61 1007.33 1008.03 1008.68 1009.25 1009.73 1010.10 1010.34 1010.42 1010.33 1010.07 1009.65 1009.08 1008.43 1007.73 1007.06 1006.49 1006.06 1005.80 1005.73 1005.81 1006.03 1006.31 1006.62 1006.90 1007.13 1007.29 1007.40 1007.48 1007.57 1007.69 1007.88 1008.15 1008.49 1008.89 1009.31 1009.73 1010.10 1010.42 1010.67 1010.85 1010.98 1011.08 1011.18
1006.61 1007.39 1008.10 1008.70 1009.17 1009.48 1009.63 1009.62 1009.45 1009.15 1008.73 1008.23 1007.68 1007.11 1006.57 1006.10 1005.73 1005.47 1005.34 1005.34 1005.43 1005.59 1005.79 1006.00 1006.18 1006.32 1006.44 1006.54 1006.64 1006.77 1006.96 1007.21 1007.53 1007.91 1008.33 1008.77 1009.19 1009.57 1009.90 1010.16 1010.37 1010.53 1010.66 1010.79
1006.80 1007.55 1008.20 1008.71 1009.05 1009.19 1009.13 1008.91 1008.54 1008.08 1007.55 1007.01 1006.49 1006.01 1005.61 1005.31 1005.10 1004.99 1004.97 1005.02 1005.11 1005.24 1005.36 1005.48 1005.58 1005.67 1005.76 1005.85 1005.98 1006.15 1006.39 1006.68 1007.04 1007.45 1007.88 1008.31 1008.73 1009.10 1009.43 1009.70 1009.92 1010.11 1010.27 1010.42
1007.10 1007.73 1008.26 1008.63 1008.81 1008.79 1008.58 1008.20 1007.70 1007.14 1006.56 1006.02 1005.56 1005.18 1004.91 1004.75 1004.68 1004.69 1004.75 1004.84 1004.93 1005.03 1005.10 1005.16 1005.21 1005.26 1005.33 1005.42 1005.57 1005.77 1006.03 1006.35 1006.72 1007.12 1007.54 1007.95 1008.34 1008.70 1009.02 1009.29 1009.53 1009.73 1009.91 1010.08
1007.38 1007.83 1008.19 1008.39 1008.42 1008.26 1007.92 1007.45 1006.90 1006.32 1005.76 1005.27 1004.89 1004.62 1004.47 1004.44 1004.48 1004.58 1004.70 1004.82 1004.93 1005.00 1005.05 1005.08 1005.10 1005.13 1005.19 1005.29 1005.45 1005.66 1005.93 1006.24 1006.59 1006.96 1007.34 1007.71 1008.06 1008.38 1008.68 1008.94 1009.17 1009.39 1009.58 1009.76
1007.54 1007.77 1007.92 1007.95 1007.83 1007.57 1007.17 1006.68 1006.14 1005.60 1005.12 1004.73 1004.46 1004.31 1004.28 1004.35 1004.48 1004.65 1004.82 1004.97 1005.09 1005.17 1005.21 1005.23 1005.25 1005.28 1005.34 1005.45 1005.60 1005.80 1006.05 1006.33 1006.64 1006.95 1007.27 1007.58 1007.87 1008.15 1008.40 1008.64 1008.87 1009.08 1009.27 1009.45
1007.49 1007.49 1007.44 1007.30 1007.07 1006.74 1006.34 1005.89 1005.43 1005.00 1004.65 1004.39 1004.25 1004.21 1004.29 1004.44 1004.64 1004.85 1005.06 1005.24 1005.37 1005.47 1005.53 1005.57 1005.60 1005.65 1005.72 1005.83 1005.97 1006.15 1006.36 1006.59 1006.82 1007.06 1007.30 1007.53 1007.75 1007.97 1008.18 1008.39 1008.59 1008.79 1008.97 1009.13
1007.22 1007.01 1006.77 1006.51 1006.20 1005.86 1005.50 1005.14 1004.81 1004.53 1004.33 1004.21 1004.20 1004.27 1004.43 1004.64 1004.88 1005.13 1005.36 1005.56 1005.72 1005.84 1005.93 1006.01 1006.08 1006.15 1006.24 1006.35 1006.48 1006.62 1006.77 1006.92 1007.08 1007.23 1007.38 1007.52 1007.67 1007.83 1007.99 1008.16 1008.33 1008.49 1008.65 1008.79
1006.75 1006.36 1005.99 1005.64 1005.31 1005.01 1004.73 1004.50 1004.32 1004.20 1004.15 1004.18 1004.28 1004.44 1004.65 1004.90 1005.15 1005.41 1005.65 1005.86 1006.05 1006.21 1006.35 1006.48 1006.59 1006.71 1006.82 1006.92 1007.03 1007.12 1007.21 1007.28 1007.35 1007.41 1007.46 1007.52 1007.60 1007.69 1007.80 1007.92 1008.05 1008.18 1008.30 1008.40
1006.14 1005.64 1005.19 1004.81 1004.49 1004.26 1004.10 1004.01 1003.99 1004.03 1004.13 1004.27 1004.46 1004.67 1004.91 1005.16 1005.41 1005.66 1005.90 1006.12 1006.34 1006.55 1006.74 1006.92 1007.09 1007.24 1007.37 1007.48 1007.56 1007.60 1007.62 1007.61 1007.58 1007.55 1007.51 1007.50 1007.50 1007.53 1007.59 1007.66 1007.74 1007.83 1007.91 1007.96
1005.44 1004.89 1004.42 1004.06 1003.81 1003.68 1003.65 1003.71 1003.84 1004.02 1004.23 1004.46 1004.70 1004.94 1005.17 1005.40 1005.63 1005.86 1006.09 1006.33 1006.58 1006.83 1007.09 1007.33 1007.55 1007.74 1007.88 1007.98 1008.03 1008.02 1007.96 1007.87 1007.76 1007.63 1007.52 1007.43 1007.37 1007.34 1007.35 1007.37 1007.41 1007.44 1007.47 1007.47
Thickness
5815 5801 5792 5799 5804 5804 5798 5790 5786 5795 5810 5803 5795 5794 5800 5805 5802 5798 5796 5795 5793 5794 5796 5795 5794 5792 5789 5786 5784 5783 5781 5780 5778 5775 5772 5770 5768 5768 5768 5768 5767 5767 5766 5764
5797 5793 5808 5813 5810 5805 5797 5787 5786 5795 5808 5801 5792 5792 5801 5804 5803 5802 5798 5796 5795 5794 5793 5793 5792 5790 5788 5785 5783 5782 5780 5779 5778 5776 5774 5772 5770 5768 5768 5767 5767 5766 5765 5764
5793 5804 5817 5811 5804 5797 5793 5788 5789 5789 5797 5797 5791 5784 5792 5801 5804 5804 5803 5801 5800 5798 5795 5793 5791 5789 5787 5785 5784 5783 5780 5779 5778 5776 5774 5771 5769 5767 5766 5765 5765 5765 5764 5764
5797 5810 5812 5805 5801 5800 5787 5803 5800 5793 5780 5769 5780 5758 5783 5790 5793 5799 5801 5801 5801 5800 5798 5795 5792 5789 5787 5786 5785 5783 5780 5778 5777 5775 5772 5769 5765 5763 5763 5764 5764 5764 5763 5762
5793 5807 5806 5800 5805 5806 5799 5808 5800 5790 5776 5765 5769 5758 5771 5785 5785 5795 5802 5805 5805 5803 5801 5797 5796 5793 5790 5787 5785 5782 5780 5777 5776 5774 5772 5768 5765 5764 5763 5763 5762 5761 5761 5760
5798 5811 5812 5810 5814 5813 5807 5797 5785 5771 5762 5748 5762 5755 5762 5778 5789 5798 5805 5808 5808 5806 5803 5799 5797 5794 5790 5787 5785 5782 5779 5776 5775 5772 5770 5768 5765 5763 5761 5760 5759 5758 5758 5758
5784 5798 5810 5815 5802 5803 5797 5771 5747 5743 5734 5740 5762 5757 5765 5795 5804 5807 5808 5810 5810 5807 5803 5798 5794 5791 5788 5786 5784 5781 5777 5774 5772 5770 5768 5767 5765 5763 5761 5760 5757 5756 5755 5755
5762 5767 5796 5806 5800 5790 5785 5774 5744 5732 5729 5739 5756 5753 5779 5805 5811 5813 5813 5812 5809 5806 5804 5800 5796 5793 5789 5787 5784 5780 5776 5773 5770 5768 5766 5765 5764 5762 5761 5759 5757 5755 5754 5754
5756 5763 5796 5806 5809 5799 5781 5769 5769 5744 5738 5733 5742 5760 5784 5804 5805 5807 5807 5807 5805 5804 5802 5799 5797 5793 5789 5787 5784 5780 5775 5772 5769 5767 5765 5763 5762 5760 5759 5757 5756 5755 5754 5754
5769 5762 5783 5796 5803 5797 5790 5772 5752 5739 5724 5722 5738 5749 5762 5788 5794 5798 5800 5800 5801 5800 5798 5796 5793 5791 5788 5786 5783 5779 5775 5771 5769 5766 5764 5762 5759 5757 5756 5754 5753 5752 5752 5751
5770 5757 5766 5778 5779 5776 5774 5765 5750 5735 5734 5722 5721 5744 5785 5789 5795 5795 5798 5799 5799 5797 5796 5793 5791 5789 5786 5783 5779 5776 5772 5768 5766 5763 5761 5759 5757 5755 5753 5751 5750 5749 5749 5748
5761 5748 5744 5761 5781 5786 5780 5769 5752 5741 5732 5725 5724 5747 5794 5793 5795 5796 5795 5796 5795 5794 5793 5791 5788 5785 5782 5778 5776 5773 5770 5766 5763 5761 5758 5756 5754 5751 5749 5748 5747 5746 5745 5745
5758 5742 5730 5740 5754 5768 5768 5764 5756 5743 5728 5718 5722 5749 5786 5788 5789 5791 5791 5791 5789 5788 5786 5784 5782 5779 5777 5775 5772 5769 5766 5763 5760 5757 5754 5752 5750 5748 5746 5744 5742 5741 5741 5740
5763 5739 5733 5729 5738 5752 5757 5759 5753 5744 5726 5722 5732 5752 5769 5776 5779 5783 5784 5785 5784 5782 5780 5778 5775 5774 5772 5770 5768 5765 5762 5759 5756 5753 5749 5747 5746 5744 5742 5740 5738 5737 5735 5734
5754 5736 5739 5744 5752 5754 5755 5756 5753 5748 5742 5736 5747 5751 5765 5772 5776 5778 5779 5778 5778 5776 5774 5773 5771 5768 5766 5764 5762 5759 5757 5754 5751 5747 5745 5742 5741 5740 5738 5735 5733 5732 5731 5729
5739 5733 5733 5737 5746 5748 5747 5753 5752 5751 5748 5746 5750 5753 5770 5772 5773 5773 5773 5773 5771 5771 5770 5769 5766 5763 5761 5758 5756 5753 5750 5748 5745 5742 5740 5737 5734 5733 5732 5730 5729 5728 5726 5723
5723 5723 5717 5715 5731 5735 5729 5745 5747 5748 5750 5748 5744 5755 5764 5764 5766 5768 5769 5768 5767 5766 5765 5763 5761 5759 5756 5754 5751 5747 5744 5741 5738 5735 5732 5731 5729 5727 5725 5724 5722 5720 5717 5716
5716 5710 5702 5702 5713 5704 5728 5750 5750 5745 5746 5749 5750 5754 5756 5758 5761 5764 5766 5764 5763 5762 5760 5758 5757 5754 5751 5749 5746 5742 5738 5734 5731 5728 5725 5723 5721 5720 5719 5716 5713 5712 5711 5710
5714 5706 5692 5687 5690 5703 5725 5740 5741 5735 5736 5745 5744 5747 5749 5752 5753 5754 5760 5760 5758 5757 5756 5754 5753 5749 5746 5742 5739 5733 5729 5726 5723 5720 5718 5716 5714 5713 5711 5708 5706 5705 5704 5703
5700 5699 5688 5680 5685 5687 5716 5738 5743 5734 5723 5741 5740 5739 5740 5740 5731 5740 5751 5751 5750 5750 5748 5746 5745 5741 5737 5734 5731 5726 5722 5718 5716 5715 5712 5710 5708 5706 5704 5702 5700 5699 5698 5696
5684 5680 5678 5675 5678 5691 5718 5730 5732 5710 5716 5735 5735 5734 5733 5730 5732 5738 5742 5741 5741 5741 5739 5737 5735 5732 5730 5727 5723 5718 5715 5712 5711 5709 5706 5703 5701 5699 5698 5696 5695 5693 5691 5689
5673 5670 5668 5666 5669 5683 5716 5717 5712 5714 5725 5727 5727 5727 5726 5727 5729 5731 5732 5731 5731 5730 5729 5727 5724 5721 5719 5717 5714 5709 5707 5707 5704 5701 5698 5696 5694 5693 5693 5691 5689 5687 5684 5682
5667 5670 5668 5671 5679 5696 5704 5707 5713 5714 5715 5718 5718 5720 5719 5719 5719 5720 5720 5720 5720 5720 5719 5717 5715 5712 5709 5707 5706 5702 5701 5699 5696 5693 5691 5689 5688 5686 5685 5684 5681 5679 5676 5674
5667 5667 5665 5668 5681 5691 5697 5703 5707 5708 5710 5712 5713 5713 5712 5710 5711 5710 5710 5709 5710 5710 5708 5706 5703 5701 5698 5697 5696 5695 5693 5691 5688 5685 5683 5681 5680 5678 5677 5676 5674 5671 5669 5667
5661 5660 5658 5662 5674 5682 5691 5695 5698 5701 5703 5704 5704 5705 5703 5701 5700 5700 5699 5699 5700 5699 5697 5695 5693 5691 5689 5687 5686 5685 5685 5683 5680 5677 5675 5673 5672 5670 5668 5667 5665 5664 5663 5661
5651 5652 5652 5657 5669 5669 5678 5687 5689 5690 5692 5693 5694 5693 5693 5693 5692 5691 5690 5690 5690 5688 5686 5684 5683 5682 5680 5678 5676 5675 5675 5674 5671 5669 5667 5665 5664 5662 5660 5658 5657 5656 5655 5653